Eau Claire, WI

10:33 PM CDT on May 27, 2017 (GMT -0500)
Chippewa Valley Regional

Weather History for KEAU - January, 2013

Change the Weather History Date:

Wednesday, January 9, 2013

  Actual Average Record
Temperature  
Mean Temperature 26 °F 14 °F  
Max Temperature 35 °F 23 °F 48 °F (2002)
Min Temperature 16 °F 6 °F -39 °F (1977)
Degree Days  
Heating Degree Days 39 51  
Month to date heating degree days 433 454  
Since 1 July heating degree days 3460 3630  
Cooling Degree Days 0 0  
Month to date cooling degree days 0 0  
Year to date cooling degree days 0 0  
Moisture  
Dew Point 21 °F    
Average Humidity 74    
Maximum Humidity 91    
Minimum Humidity 56    
Precipitation  
Precipitation 0.00 in 0.03 in 0.38 in (1924)
Month to date precipitation T 0.25  
Year to date precipitation T 0.25  
Snow  
Snow 0.00 in 0.40 in 3.60 in (1924)
Month to date snowfall 0.1 3.4  
Since 1 July snowfall 21.9 19.2  
Snow Depth 3.00 in    
Sea Level Pressure  
Sea Level Pressure 30.16 in    
Wind  
Wind Speed 10 mph (WSW)    
Max Wind Speed 24 mph    
Max Gust Speed 32 mph    
Visibility 10 miles    
Events      
T = Trace of Precipitation, MM = Missing Value Source: NWS Daily Summary

Daily Weather History Graph

Daily Weather History Graph

Search for Another Location

Airport or City:

Trip Planner

Search our weather history database for the weather conditions in past years. The results will help you decide how hot, cold, wet, or windy it might be!

Date:

Astronomy

Jan. 09, 2013 Rise Set
Actual Time 7:42 AM CST 4:44 PM CST
Civil Twilight 7:09 AM CST 5:17 PM CST
Nautical Twilight 6:32 AM CST 5:53 PM CST
Astronomical Twilight 5:57 AM CST 6:29 PM CST
Moon 5:22 AM CST (1/9) 2:45 PM CST (1/9)
Length of Visible Light 10h 07m
Length of Day
9h 01m
Waning Crescent, 6% of the Moon is Illuminated
Jan 9
Waning Crescent
Jan 11
New
Jan 18
First Quarter
Jan 26
Full
Feb 3
Last Quarter

Hourly Weather History & Observations

Time (CST) Temp. Windchill Dew Point Humidity Pressure Visibility Wind Dir Wind Speed Gust Speed Precip Events Conditions
12:56 AM 32.0 °F 22.5 °F 26.1 °F 79% 29.90 in 9.0 mi WSW 12.7 mph - N/A   Overcast
1:28 AM 30.2 °F 20.2 °F 24.8 °F 80% 29.88 in 8.0 mi West 12.7 mph - N/A   Scattered Clouds
1:56 AM 30.9 °F 22.2 °F 26.1 °F 82% 29.92 in 9.0 mi WSW 10.4 mph - N/A   Mostly Cloudy
2:56 AM 30.9 °F 22.2 °F 25.0 °F 79% 29.94 in 10.0 mi WSW 10.4 mph - N/A   Scattered Clouds
3:56 AM 30.0 °F 21.7 °F 24.1 °F 79% 29.94 in 10.0 mi SW 9.2 mph - N/A   Clear
4:56 AM 30.0 °F 21.1 °F 24.1 °F 79% 29.95 in 10.0 mi SW 10.4 mph - N/A   Clear
5:56 AM 30.9 °F 20.2 °F 24.1 °F 76% 29.96 in 10.0 mi WSW 15.0 mph - N/A   Clear
6:56 AM 32.0 °F 21.6 °F 23.0 °F 69% 30.00 in 10.0 mi West 15.0 mph 21.9 mph N/A   Clear
7:56 AM 32.0 °F 20.5 °F 23.0 °F 69% 30.04 in 10.0 mi West 18.4 mph 29.9 mph N/A   Clear
9:56 AM 32.0 °F 21.6 °F 21.0 °F 64% 30.11 in 10.0 mi West 15.0 mph 25.3 mph N/A   Clear
10:56 AM 33.1 °F 23.4 °F 21.0 °F 61% 30.14 in 10.0 mi West 13.8 mph 21.9 mph N/A   Clear
11:56 AM 33.1 °F 22.6 °F 21.0 °F 61% 30.16 in 10.0 mi West 16.1 mph 24.2 mph N/A   Clear
12:56 PM 34.0 °F 24.6 °F 21.0 °F 59% 30.22 in 10.0 mi West 13.8 mph - N/A   Clear
1:56 PM 35.1 °F 26.4 °F 21.9 °F 59% 30.27 in 10.0 mi West 12.7 mph - N/A   Clear
2:56 PM 35.1 °F 25.5 °F 21.0 °F 57% 30.31 in 10.0 mi West 15.0 mph - N/A   Clear
3:56 PM 33.1 °F 24.4 °F 21.0 °F 61% 30.36 in 10.0 mi WSW 11.5 mph - N/A   Clear
4:56 PM 30.9 °F 21.2 °F 19.9 °F 64% 30.38 in 10.0 mi WSW 12.7 mph - N/A   Clear
5:56 PM 28.9 °F 21.9 °F 19.0 °F 67% 30.38 in 10.0 mi WSW 6.9 mph - N/A   Clear
6:56 PM 27.0 °F 21.6 °F 18.0 °F 69% 30.39 in 10.0 mi SW 4.6 mph - N/A   Clear
8:56 PM 21.0 °F - 17.1 °F 85% 30.37 in 10.0 mi Calm Calm - N/A   Clear
9:56 PM 19.9 °F - 17.1 °F 89% 30.37 in 10.0 mi Calm Calm - N/A   Clear
10:56 PM 19.9 °F - 17.1 °F 89% 30.38 in 10.0 mi Calm Calm - N/A   Clear
11:56 PM 19.0 °F - 15.1 °F 85% 30.39 in 10.0 mi Calm Calm - N/A   Clear